QPF
0.00 0.00 0.00 0.00 0.00 0.00 0.00 0.00 0.00 0.00 0.00 0.00 0.00 0.00 0.00 0.00 0.00 0.00 0.00 0.00 0.00 0.00 0.00 0.00 0.00 0.00 0.00 0.00 0.00 0.00 0.00 0.00 0.00 0.00 0.00 0.00 0.00 0.00 0.00 0.00 0.00 0.00 0.00 0.00
0.00 0.00 0.00 0.00 0.00 0.00 0.00 0.00 0.00 0.00 0.00 0.00 0.00 0.00 0.00 0.00 0.00 0.00 0.00 0.00 0.00 0.00 0.00 0.00 0.00 0.00 0.00 0.00 0.00 0.00 0.00 0.00 0.00 0.00 0.00 0.00 0.00 0.00 0.00 0.00 0.00 0.00 0.00 0.00
0.00 0.00 0.00 0.00 0.00 0.00 0.00 0.00 0.00 0.00 0.00 0.00 0.00 0.00 0.00 0.00 0.00 0.00 0.00 0.00 0.00 0.00 0.00 0.00 0.00 0.00 0.00 0.00 0.00 0.00 0.00 0.00 0.00 0.00 0.00 0.00 0.00 0.00 0.00 0.00 0.00 0.00 0.00 0.00
0.00 0.00 0.00 0.00 0.00 0.00 0.00 0.00 0.00 0.00 0.00 0.00 0.00 0.00 0.00 0.00 0.00 0.00 0.00 0.00 0.00 0.00 0.00 0.00 0.00 0.00 0.00 0.00 0.00 0.00 0.00 0.00 0.00 0.00 0.00 0.00 0.00 0.00 0.00 0.00 0.00 0.00 0.00 0.00
0.00 0.00 0.00 0.00 0.00 0.00 0.00 0.00 0.00 0.00 0.00 0.00 0.00 0.00 0.00 0.00 0.00 0.00 0.00 0.00 0.00 0.00 0.00 0.00 0.00 0.00 0.00 0.00 0.00 0.00 0.00 0.00 0.00 0.00 0.00 0.00 0.00 0.00 0.00 0.00 0.00 0.00 0.00 0.00
0.00 0.00 0.00 0.00 0.00 0.00 0.00 0.00 0.00 0.00 0.00 0.00 0.00 0.00 0.00 0.00 0.00 0.00 0.00 0.00 0.00 0.00 0.00 0.00 0.00 0.00 0.00 0.00 0.00 0.00 0.00 0.00 0.00 0.00 0.00 0.00 0.00 0.00 0.00 0.00 0.00 0.00 0.00 0.00
0.01 0.00 0.00 0.00 0.00 0.00 0.00 0.00 0.00 0.00 0.00 0.00 0.00 0.00 0.00 0.00 0.00 0.00 0.00 0.00 0.00 0.00 0.00 0.00 0.00 0.00 0.00 0.00 0.00 0.00 0.00 0.00 0.00 0.00 0.00 0.00 0.00 0.00 0.00 0.00 0.00 0.00 0.00 0.00
0.00 0.00 0.00 0.00 0.00 0.00 0.00 0.00 0.00 0.00 0.00 0.00 0.00 0.00 0.00 0.00 0.00 0.00 0.00 0.00 0.00 0.00 0.00 0.00 0.00 0.00 0.00 0.00 0.00 0.00 0.00 0.00 0.00 0.00 0.00 0.00 0.00 0.00 0.00 0.00 0.00 0.00 0.00 0.00
0.00 0.00 0.00 0.00 0.00 0.00 0.00 0.00 0.00 0.00 0.00 0.00 0.00 0.00 0.00 0.00 0.00 0.00 0.00 0.00 0.00 0.00 0.00 0.00 0.00 0.00 0.00 0.00 0.00 0.00 0.00 0.00 0.00 0.00 0.00 0.00 0.00 0.00 0.00 0.00 0.00 0.00 0.00 0.00
0.00 0.00 0.00 0.00 0.00 0.00 0.00 0.00 0.00 0.00 0.00 0.00 0.00 0.00 0.00 0.00 0.00 0.00 0.00 0.00 0.00 0.00 0.00 0.00 0.00 0.00 0.00 0.00 0.00 0.00 0.00 0.00 0.00 0.00 0.00 0.00 0.00 0.00 0.00 0.00 0.00 0.00 0.00 0.00
0.00 0.00 0.00 0.00 0.00 0.00 0.00 0.00 0.00 0.00 0.00 0.00 0.00 0.00 0.00 0.00 0.00 0.00 0.00 0.00 0.00 0.00 0.00 0.00 0.00 0.00 0.00 0.00 0.00 0.00 0.00 0.00 0.00 0.00 0.00 0.00 0.00 0.00 0.00 0.00 0.00 0.00 0.00 0.00
0.00 0.00 0.00 0.00 0.00 0.00 0.00 0.00 0.00 0.00 0.00 0.00 0.00 0.00 0.00 0.00 0.00 0.00 0.00 0.00 0.00 0.00 0.00 0.00 0.00 0.00 0.00 0.00 0.00 0.00 0.00 0.00 0.00 0.00 0.00 0.00 0.00 0.00 0.00 0.00 0.00 0.00 0.00 0.00
0.00 0.00 0.00 0.00 0.00 0.00 0.00 0.00 0.00 0.00 0.00 0.00 0.00 0.00 0.00 0.00 0.00 0.00 0.00 0.00 0.00 0.00 0.00 0.00 0.00 0.00 0.00 0.00 0.00 0.00 0.00 0.00 0.00 0.00 0.00 0.00 0.00 0.00 0.00 0.00 0.00 0.00 0.00 0.00
0.00 0.00 0.00 0.00 0.00 0.00 0.00 0.00 0.00 0.00 0.00 0.00 0.00 0.00 0.00 0.00 0.00 0.00 0.00 0.00 0.00 0.00 0.00 0.00 0.00 0.00 0.00 0.00 0.00 0.00 0.00 0.00 0.00 0.00 0.00 0.00 0.00 0.00 0.00 0.00 0.00 0.00 0.00 0.00
0.00 0.00 0.00 0.00 0.00 0.00 0.00 0.00 0.00 0.00 0.00 0.00 0.00 0.00 0.00 0.00 0.00 0.00 0.00 0.00 0.00 0.00 0.00 0.00 0.00 0.00 0.00 0.00 0.00 0.00 0.00 0.00 0.00 0.00 0.00 0.00 0.00 0.00 0.00 0.00 0.00 0.00 0.00 0.00
0.00 0.00 0.00 0.00 0.00 0.00 0.00 0.00 0.00 0.00 0.00 0.00 0.00 0.00 0.00 0.00 0.00 0.00 0.00 0.00 0.00 0.00 0.00 0.00 0.00 0.00 0.00 0.00 0.00 0.00 0.00 0.00 0.00 0.00 0.00 0.00 0.00 0.00 0.00 0.00 0.00 0.00 0.00 0.00
0.00 0.00 0.00 0.00 0.00 0.00 0.00 0.00 0.00 0.00 0.00 0.00 0.00 0.00 0.00 0.00 0.00 0.00 0.00 0.00 0.00 0.00 0.00 0.00 0.00 0.00 0.00 0.00 0.00 0.00 0.00 0.00 0.00 0.00 0.00 0.00 0.00 0.00 0.00 0.00 0.00 0.00 0.00 0.00
0.00 0.00 0.00 0.00 0.00 0.00 0.00 0.00 0.00 0.00 0.00 0.00 0.00 0.00 0.00 0.00 0.00 0.00 0.00 0.00 0.00 0.00 0.00 0.00 0.00 0.00 0.00 0.00 0.00 0.00 0.00 0.00 0.00 0.00 0.00 0.00 0.00 0.00 0.00 0.00 0.00 0.00 0.00 0.00
0.00 0.00 0.00 0.00 0.00 0.00 0.00 0.00 0.00 0.00 0.00 0.00 0.00 0.00 0.00 0.00 0.00 0.00 0.00 0.00 0.00 0.00 0.00 0.00 0.00 0.00 0.00 0.00 0.00 0.00 0.00 0.00 0.00 0.00 0.00 0.00 0.00 0.00 0.00 0.00 0.00 0.00 0.00 0.00
0.00 0.00 0.00 0.00 0.00 0.00 0.00 0.00 0.00 0.00 0.00 0.00 0.00 0.00 0.00 0.00 0.00 0.00 0.00 0.00 0.00 0.00 0.00 0.00 0.00 0.00 0.00 0.00 0.00 0.00 0.00 0.00 0.00 0.00 0.00 0.00 0.00 0.00 0.00 0.00 0.00 0.00 0.00 0.00
0.00 0.00 0.00 0.00 0.00 0.00 0.00 0.00 0.00 0.00 0.00 0.00 0.00 0.00 0.00 0.00 0.00 0.00 0.00 0.00 0.00 0.00 0.00 0.00 0.00 0.00 0.00 0.00 0.00 0.00 0.00 0.00 0.00 0.00 0.00 0.00 0.00 0.00 0.00 0.00 0.00 0.00 0.00 0.00
0.00 0.00 0.00 0.00 0.00 0.00 0.00 0.00 0.00 0.00 0.00 0.00 0.00 0.00 0.00 0.00 0.00 0.00 0.00 0.00 0.00 0.00 0.00 0.00 0.00 0.00 0.00 0.00 0.00 0.00 0.00 0.00 0.00 0.00 0.00 0.00 0.00 0.00 0.00 0.00 0.01 0.01 0.01 0.01
0.00 0.00 0.00 0.00 0.00 0.00 0.00 0.00 0.00 0.00 0.00 0.00 0.00 0.00 0.00 0.00 0.00 0.00 0.00 0.00 0.00 0.00 0.00 0.00 0.00 0.00 0.00 0.00 0.00 0.00 0.00 0.00 0.00 0.00 0.00 0.00 0.00 0.01 0.01 0.01 0.01 0.01 0.01 0.01
0.00 0.00 0.00 0.00 0.00 0.00 0.00 0.00 0.00 0.00 0.00 0.00 0.00 0.00 0.00 0.00 0.00 0.00 0.00 0.00 0.00 0.00 0.00 0.00 0.00 0.00 0.00 0.00 0.00 0.00 0.00 0.00 0.00 0.00 0.00 0.00 0.01 0.01 0.01 0.01 0.01 0.01 0.01 0.01
0.00 0.00 0.00 0.00 0.00 0.00 0.00 0.00 0.00 0.00 0.00 0.00 0.00 0.00 0.00 0.00 0.00 0.00 0.00 0.00 0.00 0.00 0.00 0.00 0.00 0.00 0.00 0.00 0.00 0.00 0.00 0.00 0.00 0.00 0.00 0.00 0.00 0.01 0.01 0.01 0.01 0.01 0.01 0.01
0.00 0.00 0.00 0.00 0.00 0.00 0.00 0.00 0.00 0.00 0.00 0.00 0.00 0.00 0.00 0.00 0.00 0.00 0.00 0.00 0.00 0.00 0.00 0.00 0.00 0.00 0.00 0.00 0.00 0.00 0.00 0.00 0.00 0.00 0.00 0.00 0.01 0.01 0.01 0.01 0.01 0.01 0.00 0.00
0.00 0.00 0.00 0.00 0.00 0.00 0.00 0.00 0.00 0.00 0.00 0.00 0.00 0.00 0.00 0.00 0.00 0.00 0.00 0.00 0.00 0.00 0.00 0.00 0.00 0.00 0.00 0.00 0.00 0.00 0.00 0.00 0.00 0.00 0.00 0.01 0.01 0.01 0.01 0.00 0.00 0.00 0.00 0.00
MSLP
1006.67 1006.85 1007.00 1007.11 1007.18 1007.19 1007.15 1007.06 1006.94 1006.83 1006.76 1006.75 1006.86 1007.10 1007.48 1008.00 1008.65 1009.39 1010.20 1011.04 1011.89 1012.71 1013.50 1014.25 1014.94 1015.58 1016.17 1016.69 1017.15 1017.53 1017.83 1018.04 1018.17 1018.21 1018.18 1018.08 1017.91 1017.70 1017.43 1017.12 1016.76 1016.33 1015.85 1015.30
1006.48 1006.54 1006.55 1006.51 1006.45 1006.37 1006.29 1006.22 1006.18 1006.20 1006.29 1006.47 1006.75 1007.13 1007.62 1008.19 1008.85 1009.56 1010.32 1011.11 1011.90 1012.70 1013.47 1014.23 1014.95 1015.63 1016.25 1016.81 1017.30 1017.70 1018.00 1018.20 1018.31 1018.32 1018.24 1018.08 1017.85 1017.57 1017.23 1016.85 1016.42 1015.95 1015.43 1014.87
1006.39 1006.33 1006.20 1006.03 1005.85 1005.68 1005.56 1005.52 1005.56 1005.71 1005.96 1006.31 1006.76 1007.28 1007.87 1008.50 1009.18 1009.88 1010.60 1011.34 1012.09 1012.84 1013.60 1014.34 1015.07 1015.77 1016.42 1017.00 1017.49 1017.88 1018.17 1018.34 1018.41 1018.37 1018.23 1018.00 1017.71 1017.35 1016.95 1016.50 1016.01 1015.49 1014.94 1014.36
1006.34 1006.18 1005.94 1005.65 1005.37 1005.14 1005.01 1004.99 1005.11 1005.38 1005.77 1006.28 1006.88 1007.53 1008.22 1008.92 1009.63 1010.33 1011.02 1011.72 1012.43 1013.15 1013.87 1014.60 1015.33 1016.02 1016.66 1017.23 1017.71 1018.08 1018.33 1018.46 1018.46 1018.36 1018.16 1017.86 1017.50 1017.08 1016.61 1016.10 1015.57 1015.01 1014.44 1013.86
1006.27 1006.03 1005.71 1005.36 1005.02 1004.77 1004.63 1004.66 1004.85 1005.22 1005.74 1006.38 1007.10 1007.87 1008.64 1009.41 1010.14 1010.85 1011.53 1012.21 1012.88 1013.57 1014.27 1014.97 1015.67 1016.34 1016.95 1017.49 1017.93 1018.25 1018.45 1018.52 1018.47 1018.30 1018.03 1017.68 1017.26 1016.79 1016.27 1015.72 1015.15 1014.57 1013.98 1013.39
1006.12 1005.86 1005.52 1005.14 1004.80 1004.55 1004.45 1004.52 1004.79 1005.25 1005.87 1006.60 1007.42 1008.27 1009.11 1009.92 1010.68 1011.39 1012.07 1012.73 1013.38 1014.04 1014.71 1015.38 1016.05 1016.68 1017.26 1017.74 1018.13 1018.39 1018.52 1018.53 1018.41 1018.19 1017.87 1017.47 1017.01 1016.50 1015.96 1015.39 1014.80 1014.20 1013.60 1012.99
1005.90 1005.66 1005.35 1005.00 1004.70 1004.51 1004.46 1004.60 1004.94 1005.47 1006.15 1006.95 1007.83 1008.72 1009.59 1010.42 1011.20 1011.91 1012.59 1013.23 1013.87 1014.50 1015.15 1015.79 1016.41 1017.00 1017.52 1017.95 1018.27 1018.46 1018.53 1018.47 1018.30 1018.02 1017.67 1017.24 1016.76 1016.24 1015.69 1015.11 1014.52 1013.91 1013.30 1012.67
1005.63 1005.46 1005.22 1004.97 1004.76 1004.65 1004.69 1004.91 1005.30 1005.88 1006.60 1007.42 1008.31 1009.20 1010.08 1010.90 1011.67 1012.38 1013.04 1013.68 1014.30 1014.92 1015.54 1016.14 1016.73 1017.26 1017.72 1018.09 1018.34 1018.47 1018.47 1018.35 1018.13 1017.82 1017.43 1016.99 1016.51 1015.99 1015.44 1014.88 1014.29 1013.68 1013.05 1012.40
1005.34 1005.28 1005.17 1005.05 1004.98 1004.99 1005.13 1005.42 1005.87 1006.47 1007.19 1008.00 1008.86 1009.72 1010.56 1011.35 1012.09 1012.78 1013.43 1014.05 1014.66 1015.26 1015.86 1016.43 1016.98 1017.46 1017.86 1018.16 1018.35 1018.41 1018.35 1018.19 1017.92 1017.58 1017.18 1016.73 1016.25 1015.74 1015.21 1014.65 1014.07 1013.46 1012.82 1012.15
1005.09 1005.17 1005.22 1005.27 1005.35 1005.51 1005.76 1006.13 1006.62 1007.22 1007.92 1008.68 1009.48 1010.27 1011.05 1011.78 1012.47 1013.13 1013.75 1014.36 1014.95 1015.54 1016.11 1016.66 1017.16 1017.60 1017.95 1018.19 1018.31 1018.31 1018.20 1017.99 1017.69 1017.33 1016.92 1016.47 1015.99 1015.49 1014.96 1014.41 1013.83 1013.21 1012.56 1011.87
1004.91 1005.16 1005.39 1005.63 1005.88 1006.18 1006.54 1006.98 1007.50 1008.09 1008.74 1009.43 1010.15 1010.85 1011.54 1012.20 1012.84 1013.45 1014.04 1014.63 1015.21 1015.77 1016.32 1016.84 1017.30 1017.69 1017.98 1018.17 1018.23 1018.18 1018.03 1017.78 1017.45 1017.07 1016.64 1016.18 1015.71 1015.20 1014.68 1014.13 1013.54 1012.92 1012.25 1011.55
1004.85 1005.27 1005.68 1006.09 1006.51 1006.95 1007.41 1007.91 1008.44 1009.01 1009.61 1010.22 1010.83 1011.45 1012.04 1012.63 1013.20 1013.77 1014.33 1014.88 1015.44 1015.98 1016.50 1016.98 1017.40 1017.74 1017.98 1018.11 1018.13 1018.04 1017.84 1017.56 1017.21 1016.80 1016.36 1015.89 1015.40 1014.89 1014.36 1013.79 1013.20 1012.56 1011.89 1011.18
1004.91 1005.48 1006.06 1006.63 1007.20 1007.75 1008.30 1008.84 1009.38 1009.92 1010.45 1010.98 1011.51 1012.03 1012.54 1013.06 1013.57 1014.09 1014.61 1015.14 1015.66 1016.17 1016.66 1017.09 1017.47 1017.75 1017.94 1018.02 1017.99 1017.86 1017.63 1017.32 1016.94 1016.52 1016.06 1015.58 1015.07 1014.55 1014.00 1013.42 1012.81 1012.17 1011.49 1010.78
1005.08 1005.78 1006.49 1007.20 1007.88 1008.53 1009.14 1009.71 1010.24 1010.74 1011.22 1011.68 1012.13 1012.57 1013.01 1013.47 1013.93 1014.41 1014.89 1015.39 1015.87 1016.35 1016.78 1017.17 1017.48 1017.71 1017.85 1017.88 1017.81 1017.64 1017.38 1017.05 1016.66 1016.22 1015.75 1015.25 1014.73 1014.19 1013.62 1013.03 1012.40 1011.76 1011.08 1010.39
1005.34 1006.14 1006.96 1007.76 1008.53 1009.24 1009.88 1010.46 1010.98 1011.44 1011.87 1012.27 1012.65 1013.04 1013.43 1013.84 1014.27 1014.71 1015.16 1015.61 1016.06 1016.48 1016.86 1017.18 1017.43 1017.60 1017.68 1017.66 1017.55 1017.35 1017.08 1016.74 1016.34 1015.90 1015.42 1014.91 1014.38 1013.82 1013.24 1012.64 1012.01 1011.37 1010.71 1010.04
1005.70 1006.56 1007.44 1008.29 1009.10 1009.84 1010.49 1011.06 1011.56 1011.99 1012.37 1012.73 1013.07 1013.42 1013.78 1014.16 1014.56 1014.97 1015.39 1015.80 1016.20 1016.56 1016.88 1017.13 1017.31 1017.42 1017.44 1017.37 1017.23 1017.01 1016.72 1016.38 1015.98 1015.55 1015.07 1014.57 1014.03 1013.47 1012.89 1012.29 1011.67 1011.04 1010.40 1009.75
1006.13 1007.02 1007.91 1008.79 1009.60 1010.33 1010.97 1011.51 1011.98 1012.38 1012.73 1013.06 1013.38 1013.70 1014.05 1014.41 1014.79 1015.19 1015.57 1015.95 1016.29 1016.59 1016.84 1017.02 1017.13 1017.16 1017.13 1017.02 1016.84 1016.61 1016.32 1015.98 1015.59 1015.17 1014.71 1014.22 1013.70 1013.14 1012.57 1011.98 1011.38 1010.77 1010.16 1009.55
1006.63 1007.51 1008.40 1009.25 1010.03 1010.72 1011.32 1011.83 1012.26 1012.63 1012.96 1013.28 1013.59 1013.91 1014.25 1014.61 1014.98 1015.36 1015.71 1016.05 1016.34 1016.57 1016.75 1016.85 1016.89 1016.87 1016.77 1016.63 1016.42 1016.18 1015.89 1015.56 1015.19 1014.79 1014.36 1013.88 1013.38 1012.85 1012.30 1011.73 1011.15 1010.57 1009.99 1009.42
1007.20 1008.05 1008.89 1009.68 1010.41 1011.05 1011.60 1012.06 1012.46 1012.81 1013.12 1013.43 1013.74 1014.07 1014.41 1014.78 1015.14 1015.50 1015.83 1016.12 1016.36 1016.53 1016.63 1016.67 1016.64 1016.56 1016.42 1016.23 1016.01 1015.75 1015.47 1015.15 1014.81 1014.43 1014.02 1013.58 1013.10 1012.60 1012.07 1011.53 1010.98 1010.43 1009.89 1009.35
1007.82 1008.61 1009.39 1010.11 1010.77 1011.34 1011.84 1012.26 1012.62 1012.95 1013.25 1013.56 1013.88 1014.22 1014.57 1014.94 1015.30 1015.64 1015.94 1016.19 1016.37 1016.48 1016.53 1016.50 1016.42 1016.28 1016.10 1015.88 1015.64 1015.37 1015.09 1014.78 1014.45 1014.10 1013.71 1013.30 1012.85 1012.37 1011.88 1011.37 1010.85 1010.33 1009.81 1009.30
1008.48 1009.20 1009.90 1010.55 1011.14 1011.64 1012.08 1012.46 1012.80 1013.11 1013.42 1013.73 1014.06 1014.41 1014.77 1015.13 1015.48 1015.79 1016.06 1016.27 1016.41 1016.47 1016.45 1016.37 1016.23 1016.05 1015.83 1015.58 1015.32 1015.05 1014.77 1014.47 1014.15 1013.81 1013.44 1013.04 1012.62 1012.17 1011.71 1011.22 1010.73 1010.24 1009.75 1009.25
1009.15 1009.81 1010.43 1011.01 1011.53 1011.98 1012.37 1012.73 1013.05 1013.35 1013.66 1013.98 1014.32 1014.67 1015.03 1015.38 1015.71 1015.99 1016.22 1016.39 1016.47 1016.48 1016.41 1016.28 1016.10 1015.87 1015.62 1015.35 1015.08 1014.79 1014.50 1014.20 1013.88 1013.55 1013.19 1012.81 1012.41 1011.98 1011.54 1011.08 1010.62 1010.15 1009.67 1009.19
1009.82 1010.41 1010.97 1011.49 1011.96 1012.37 1012.74 1013.07 1013.39 1013.69 1014.01 1014.33 1014.67 1015.02 1015.36 1015.69 1015.99 1016.23 1016.41 1016.52 1016.55 1016.50 1016.39 1016.21 1015.99 1015.73 1015.45 1015.16 1014.87 1014.57 1014.27 1013.96 1013.64 1013.31 1012.96 1012.59 1012.19 1011.78 1011.36 1010.93 1010.48 1010.03 1009.58 1009.10
1010.47 1011.01 1011.53 1012.01 1012.44 1012.83 1013.18 1013.51 1013.83 1014.15 1014.47 1014.79 1015.12 1015.45 1015.77 1016.06 1016.30 1016.49 1016.61 1016.66 1016.63 1016.53 1016.37 1016.15 1015.89 1015.60 1015.29 1014.98 1014.67 1014.36 1014.05 1013.73 1013.40 1013.07 1012.71 1012.35 1011.96 1011.57 1011.16 1010.74 1010.32 1009.89 1009.44 1008.97
1011.10 1011.61 1012.10 1012.55 1012.97 1013.35 1013.71 1014.05 1014.38 1014.70 1015.02 1015.34 1015.65 1015.95 1016.22 1016.45 1016.63 1016.75 1016.81 1016.78 1016.69 1016.53 1016.31 1016.05 1015.76 1015.44 1015.12 1014.79 1014.46 1014.13 1013.81 1013.48 1013.14 1012.80 1012.45 1012.08 1011.70 1011.32 1010.92 1010.52 1010.11 1009.69 1009.26 1008.79
1011.72 1012.22 1012.69 1013.13 1013.55 1013.94 1014.31 1014.66 1014.99 1015.31 1015.63 1015.93 1016.21 1016.46 1016.67 1016.84 1016.94 1016.98 1016.96 1016.86 1016.70 1016.48 1016.21 1015.91 1015.58 1015.24 1014.89 1014.55 1014.20 1013.87 1013.53 1013.19 1012.85 1012.50 1012.14 1011.77 1011.40 1011.02 1010.63 1010.24 1009.84 1009.43 1009.00 1008.54
1012.34 1012.83 1013.29 1013.74 1014.16 1014.56 1014.94 1015.29 1015.63 1015.95 1016.25 1016.52 1016.75 1016.94 1017.09 1017.18 1017.20 1017.16 1017.05 1016.88 1016.65 1016.37 1016.06 1015.72 1015.36 1014.99 1014.63 1014.27 1013.91 1013.56 1013.21 1012.86 1012.51 1012.15 1011.78 1011.41 1011.03 1010.65 1010.26 1009.88 1009.48 1009.07 1008.64 1008.19
Thickness
5614 5616 5619 5619 5617 5618 5623 5633 5635 5643 5643 5651 5650 5647 5644 5641 5636 5630 5622 5614 5607 5600 5592 5583 5575 5567 5560 5552 5544 5537 5530 5522 5515 5508 5501 5494 5487 5479 5471 5463 5455 5448 5442 5436
5602 5604 5612 5615 5623 5624 5627 5633 5637 5641 5643 5650 5642 5638 5635 5633 5628 5624 5617 5608 5601 5593 5586 5577 5567 5559 5549 5541 5533 5525 5518 5511 5503 5496 5488 5480 5472 5464 5457 5449 5442 5435 5428 5422
5601 5598 5602 5607 5625 5628 5631 5637 5638 5637 5646 5633 5628 5627 5627 5625 5622 5618 5611 5603 5594 5586 5577 5567 5558 5549 5540 5531 5521 5514 5506 5498 5490 5482 5474 5466 5458 5451 5444 5437 5429 5422 5415 5407
5594 5595 5593 5633 5629 5636 5635 5638 5639 5640 5638 5634 5630 5620 5616 5615 5614 5609 5603 5595 5586 5577 5567 5556 5546 5537 5528 5519 5510 5502 5494 5485 5477 5468 5460 5452 5445 5438 5431 5424 5416 5409 5401 5392
5588 5599 5612 5622 5619 5622 5625 5629 5631 5629 5624 5620 5613 5609 5603 5597 5597 5596 5592 5585 5576 5566 5555 5544 5535 5525 5516 5507 5498 5489 5480 5471 5462 5453 5445 5438 5432 5425 5418 5410 5403 5394 5385 5377
5583 5593 5604 5625 5620 5620 5623 5623 5622 5622 5617 5611 5610 5609 5600 5586 5582 5578 5573 5567 5560 5551 5542 5533 5523 5514 5505 5495 5486 5476 5466 5456 5447 5439 5431 5425 5418 5411 5404 5396 5388 5379 5370 5360
5586 5594 5617 5616 5612 5615 5615 5627 5617 5615 5611 5607 5606 5603 5587 5575 5568 5563 5557 5551 5545 5538 5530 5521 5511 5501 5492 5482 5473 5461 5450 5441 5433 5425 5417 5410 5404 5396 5388 5380 5373 5365 5356 5345
5587 5593 5607 5605 5608 5612 5615 5610 5609 5605 5600 5594 5587 5577 5570 5564 5555 5549 5543 5537 5533 5526 5517 5506 5496 5487 5478 5469 5457 5445 5436 5428 5420 5412 5403 5395 5388 5380 5371 5363 5357 5350 5341 5332
5603 5603 5598 5598 5604 5603 5604 5602 5598 5593 5588 5583 5576 5569 5562 5554 5546 5539 5533 5527 5521 5513 5502 5492 5482 5473 5464 5452 5441 5431 5423 5415 5407 5398 5390 5381 5372 5364 5355 5346 5337 5331 5324 5319
5590 5589 5588 5589 5590 5592 5595 5591 5587 5583 5578 5574 5568 5560 5553 5545 5537 5530 5522 5516 5508 5500 5489 5478 5466 5456 5446 5436 5426 5418 5411 5403 5395 5387 5378 5369 5358 5347 5336 5326 5318 5311 5306 5303
5585 5583 5583 5582 5583 5581 5578 5576 5571 5566 5563 5561 5556 5549 5543 5536 5528 5520 5511 5504 5496 5487 5476 5464 5452 5442 5432 5423 5414 5407 5399 5392 5383 5374 5365 5355 5344 5332 5319 5308 5296 5290 5286 5282
5598 5591 5590 5584 5575 5572 5569 5563 5559 5553 5546 5542 5541 5536 5530 5524 5516 5508 5500 5490 5481 5471 5461 5449 5439 5430 5421 5411 5403 5395 5387 5380 5370 5360 5350 5340 5330 5321 5309 5296 5288 5278 5270 5265
5589 5584 5581 5576 5565 5561 5556 5548 5544 5541 5536 5528 5523 5520 5515 5509 5501 5494 5485 5475 5466 5456 5447 5437 5428 5419 5410 5400 5391 5382 5374 5364 5355 5345 5335 5324 5314 5306 5300 5293 5282 5274 5266 5258
5570 5568 5562 5561 5553 5544 5537 5530 5526 5522 5518 5514 5509 5504 5499 5492 5485 5478 5469 5461 5452 5443 5434 5425 5416 5408 5399 5388 5378 5369 5359 5348 5338 5328 5317 5307 5298 5289 5283 5279 5275 5270 5261 5251
5557 5559 5557 5544 5532 5523 5517 5514 5511 5508 5504 5498 5494 5489 5484 5478 5471 5464 5455 5446 5438 5430 5422 5413 5405 5397 5386 5376 5365 5355 5345 5335 5324 5313 5303 5292 5284 5276 5270 5265 5260 5256 5251 5244
5535 5532 5529 5524 5514 5507 5504 5503 5503 5498 5491 5486 5481 5475 5470 5464 5458 5449 5441 5433 5426 5420 5412 5402 5393 5384 5373 5362 5352 5342 5332 5319 5306 5297 5288 5279 5271 5264 5259 5253 5248 5242 5236 5228
5527 5516 5511 5504 5502 5500 5499 5497 5493 5487 5480 5474 5469 5462 5456 5449 5443 5436 5428 5421 5414 5407 5398 5389 5380 5369 5358 5348 5338 5328 5318 5306 5293 5283 5275 5267 5260 5254 5248 5242 5236 5229 5222 5214
5532 5525 5519 5513 5505 5495 5488 5482 5478 5473 5468 5463 5457 5450 5444 5438 5434 5427 5417 5408 5399 5392 5384 5375 5365 5354 5344 5334 5323 5313 5302 5292 5282 5273 5265 5258 5250 5244 5237 5230 5223 5216 5211 5206
5512 5508 5502 5496 5491 5485 5478 5472 5466 5462 5456 5451 5445 5439 5435 5429 5423 5415 5404 5395 5389 5382 5373 5361 5349 5340 5329 5319 5307 5298 5288 5278 5270 5263 5256 5249 5242 5234 5226 5218 5211 5205 5201 5198
5493 5489 5484 5478 5473 5469 5465 5460 5455 5449 5444 5439 5434 5429 5422 5416 5408 5400 5391 5384 5377 5368 5356 5344 5334 5325 5315 5304 5292 5283 5275 5268 5261 5255 5247 5239 5232 5223 5215 5207 5201 5196 5193 5191
5477 5473 5468 5463 5458 5454 5451 5446 5442 5437 5431 5426 5422 5418 5411 5403 5394 5385 5377 5370 5361 5348 5338 5328 5319 5310 5299 5289 5280 5273 5265 5257 5251 5244 5236 5228 5220 5211 5204 5198 5193 5190 5188 5188
5463 5460 5455 5451 5447 5441 5436 5431 5427 5423 5418 5413 5408 5403 5396 5387 5378 5369 5361 5353 5342 5331 5322 5313 5304 5294 5284 5276 5269 5261 5253 5246 5239 5232 5224 5215 5207 5201 5195 5191 5188 5187 5186 5186
5451 5447 5442 5438 5434 5428 5421 5417 5413 5409 5405 5400 5393 5386 5379 5372 5363 5354 5346 5334 5324 5315 5307 5299 5288 5279 5271 5264 5256 5249 5242 5235 5227 5219 5211 5204 5197 5192 5189 5187 5186 5185 5184 5185
5437 5432 5427 5423 5418 5414 5411 5404 5398 5393 5388 5382 5375 5368 5361 5353 5344 5334 5325 5315 5306 5299 5291 5282 5272 5264 5257 5250 5243 5236 5230 5223 5215 5207 5200 5195 5191 5188 5186 5184 5183 5183 5184 5186
5422 5416 5411 5407 5406 5402 5395 5386 5380 5375 5369 5363 5355 5347 5339 5332 5324 5314 5305 5297 5289 5282 5274 5265 5256 5249 5242 5236 5230 5224 5218 5211 5204 5198 5195 5191 5187 5184 5182 5182 5182 5182 5184 5188
5406 5402 5398 5395 5391 5386 5379 5373 5367 5360 5353 5345 5336 5327 5318 5310 5302 5295 5288 5280 5273 5265 5257 5249 5242 5235 5230 5224 5219 5213 5207 5200 5195 5190 5186 5183 5181 5180 5180 5179 5180 5182 5186 5191
5387 5383 5379 5375 5370 5367 5362 5356 5350 5342 5334 5327 5317 5308 5299 5292 5285 5278 5271 5263 5256 5248 5241 5235 5229 5224 5219 5214 5208 5202 5196 5191 5187 5183 5180 5178 5176 5176 5176 5178 5181 5185 5190 5196